Weather Service Report


115 
ASUS46 KSTO 200715
RWRCA 

NORTHERN AND CENTRAL CA REGIONAL WEATHER ROUNDUP
NATIONAL WEATHER SERVICE SACRAMENTO CA 
1200 AM PDT THU SEP 20 2018

NOTE: FAIR INDICATES FEW OR NO CLOUDS BELOW 12,000 FEET WITH NO
SIGNIFICANT WEATHER AND/OR OBSTRUCTIONS TO VISIBILITY.

CAZ001-003-200800-
NORTHWEST AREA
  
CITY           SKY/WX    TMP DP  RH WIND       PRES   REMARKS
CRESCENT CITY  CLEAR     52  50  93 CALM      30.04R                  
UKIAH          CLEAR     59  38  45 CALM      29.91S                  
$$

CAZ006-505>513-200800-
BAY AREA
  
CITY           SKY/WX    TMP DP  RH WIND       PRES   REMARKS
SANTA ROSA     CLEAR     55  48  77 W3        29.83S                  
SAN RAFAEL     N/A       62  MM  MM MISG
NAPA           CLEAR     56  48  74 CALM      29.83S                  
CONCORD        CLEAR     64  49  57 CALM      29.83R                  
OAKLAND CITY   N/A       62  MM  MM MISG
OAKLAND        CLEAR     59  53  80 N3        29.83F                  
SAN FRAN CITY  N/A       58  MM  70 MISG
SAN FRAN ARPT  CLEAR     59  48  67 W6        29.82F                  
LIVERMORE      CLEAR     61  46  57 CALM      29.82F                  
HAYWARD        CLEAR     63  53  70 CALM      29.83F                  
REDWOOD CITY   N/A       59  MM  73 MISG
MOFFETT ARPT   CLEAR     62  54  74 CALM      29.84F                  
SAN JOSE ARPT  PTCLDY    64  55  72 CALM      29.83F                  
$$
CAZ034-037-514>518-200800-
CENTRAL COAST
  
CITY           SKY/WX    TMP DP  RH WIND       PRES   REMARKS
WATSONVILLE    CLEAR     53  50  89 CALM      29.84S                  
SALINAS        CLEAR     56  51  84 N3        29.83S                  
MONTEREY       CLEAR     54  48  80 SE3       29.84F                  
SAN LUIS OBISP CLEAR     52  48  86 SE3       29.79S                  
SANTA MARIA    CLEAR     55  50  83 CALM      29.79S                  
$$
CAZ015-016-200800-
NORTHERN SACRAMENTO VALLEY
  
CITY           SKY/WX    TMP DP  RH WIND       PRES   REMARKS
REDDING        CLEAR     71  27  19 CALM      29.89R                  
RED BLUFF      CLEAR     72  31  22 NW12      29.87S                  
OROVILLE       CLEAR     63  39  41 N5        29.83S                  
$$
CAZ016>018-200800-
SOUTHERN SACRAMENTO VALLEY
  
CITY           SKY/WX    TMP DP  RH WIND       PRES   REMARKS
AUBURN           N/A    N/A N/A N/A MISG        N/A                   
LINCOLN        FAIR      57  43  58 E6        29.80S                  
MARYSVILLE     CLEAR     57  47  69 CALM      29.81S                  
SAC INTL ARPT  CLEAR     58  48  69 N6        29.79S                  
MATHER AIRPORT NOT AVBL                                               
DOWNTOWN SAC   N/A       64  MM  MM MISG
SAC EXEC ARPT  CLEAR     62  52  69 CALM      29.79F                  
VACAVILLE      CLEAR     59  45  59 S3        29.81F                  
$$
CAZ019>021-200800-
SAN JOAQUIN VALLEY
  
CITY           SKY/WX    TMP DP  RH WIND       PRES   REMARKS
STOCKTON       CLEAR     65  49  56 NW7       29.79S                  
MODESTO        CLEAR     70  48  45 N7        29.78S                  
MERCED         CLEAR     64  49  57 CALM      29.78S                  
LEMOORE        CLEAR     65  42  43 W7        29.80S                  
FRESNO         CLEAR     70  48  45 W7        29.80R                  
HANFORD        CLEAR     62  53  72 CALM      29.80S                  
PORTERVILLE      N/A     62  46  55 SE3       29.82S                  
BAKERSFIELD    CLEAR     71  46  40 E5        29.82R                  
$$
CAZ011-012-071-200800-
NORTHERN MOUNTAINS
  
CITY           SKY/WX    TMP DP  RH WIND       PRES   REMARKS
YREKA          CLEAR     50  31  48 VRB3      30.08S                  
MOUNT SHASTA   CLEAR     52  31  44 VRB3      30.07S                  
ALTURAS        CLEAR     44  29  55 CALM      30.09S                  
$$
CAZ011-012-071-200800-
SIERRA NEVADA MTNS
  
CITY           SKY/WX    TMP DP  RH WIND       PRES   REMARKS
BLUE CANYON    CLEAR     58  33  39 NE8       30.05F                  
TRUCKEE        CLEAR     37  32  81 S3        30.13R                  
TAHOE VLY ARPT CLEAR     43  29  57 VRB3      30.11S                  
MAMMOTH LAKES  FAIR      47  13  25 W13       30.15R                  
$$
  

Return to Home page


Western Regional Climate Center, wrcc@dri.edu